GSAT-7A

Last updated on Sun Apr 12 2026 00:02:55 GMT+0000 (Coordinated Universal Time)

1 43864U 18105A 26101.53317078 .00000027 00000+0 00000+0 0 9991 2 43864 0.0233 335.5617 0002293 54.1281 64.8211 1.00272274 26782
UTC large
Height (km)
Speed (km/s)
/
Latitude / Longitude
Inclination (degrees)
Orbital Period (minutes)
Azimuth
Elevation
Range (km)
Doppler Factor

Next 0 passes for location: London (51.5072 / 0.1276)

Sorry there are no passes over London.
GSAT-7A